W4AWS Weather Reports


time (UTC)temp
C
wind
direction
speed
KPH
gust
KPH
rain 1hr
cm
rain 24hr
cm
rain mn
cm
humidity
%
barometer
mb
20260507151516 12 225 1.6 4.8 0.08 0.91 0.91 76 1013.0
20260507150517 12 315 1.6 3.2 0.05 0.86 0.86 77 1012.8
20260507145516 12 0.0 1.6 0.05 0.86 0.86 76 1013.3
20260507144516 12 0.0 3.2 0.05 0.86 0.86 75 1013.4
20260507143516 12 90 1.6 6.4 0.03 0.84 0.84 75 1013.3
20260507142536 12 68 1.6 4.8 0.03 0.84 0.84 75 1013.2
20260507141516 12 113 1.6 4.8 0.03 0.84 0.84 75 1013.6
20260507140516 12 315 1.6 8.0 0.03 0.81 0.81 74 1013.4
20260507135536 12 45 1.6 8.0 0.03 0.81 0.81 74 1013.2
20260507134516 12 315 4.8 14.5 0.03 0.81 0.81 74 1013.4
20260507133516 13 315 3.2 14.5 0.03 0.81 0.81 78 1013.5
20260507132536 13 45 1.6 4.8 0.05 0.81 0.81 80 1013.4
20260507131536 13 90 1.6 6.4 0.05 0.81 0.81 80 1013.4
20260507130516 13 293 1.6 6.4 0.05 0.79 0.79 80 1013.0
20260507125516 14 90 1.6 8.0 0.05 0.79 0.79 80 1012.7
20260507124516 14 113 1.6 4.8 0.08 0.79 0.79 80 1012.9
20260507123536 14 0.0 3.2 0.13 0.79 0.79 80 1012.8
20260507122516 14 113 1.6 3.2 0.15 0.76 0.76 80 1013.0
20260507121516 14 0.0 1.6 0.18 0.76 0.76 79 1013.1
20260507120516 14 0.0 4.8 0.18 0.74 0.74 79 1012.9
20260507115536 14 270 1.6 3.2 0.18 0.74 0.74 79 1012.9
20260507114516 15 270 1.6 3.2 0.20 0.71 0.71 79 1013.0
20260507113516 15 90 1.6 4.8 0.18 0.66 0.66 79 1012.8
20260507112536 15 293 1.6 4.8 0.18 0.61 0.61 79 1012.6
20260507111536 15 338 1.6 9.7 0.20 0.58 0.58 79 1012.4
20260507110516 16 113 1.6 4.8 0.20 0.56 0.56 79 1012.3
20260507105516 16 338 3.2 6.4 0.23 0.56 0.56 79 1011.9
20260507104536 16 68 1.6 6.4 0.20 0.51 0.51 79 1011.8
20260507103516 17 90 1.6 11.3 0.23 0.48 0.48 78 1011.5
20260507102536 17 90 1.6 6.4 0.23 0.43 0.43 78 1011.7
20260507101516 18 90 1.6 6.4 0.23 0.38 0.38 81 1011.4
20260507095516 18 0.0 0.0 0.18 0.33 0.33 80 1011.3
20260507094536 18 0.0 0.0 0.15 0.30 0.30 80 1011.1
20260507093516 18 0.0 1.6 0.10 0.25 0.25 80 1011.1
20260507092536 18 0.0 1.6 0.05 0.20 0.20 80 1011.0
20260507091516 18 0.0 1.6 0.00 0.15 0.15 80 1011.1
20260507090516 18 0.0 1.6 0.00 0.15 0.15 79 1010.7
20260507085516 19 0.0 0.0 0.00 0.15 0.15 79 1010.6
20260507084516 19 0.0 3.2 0.00 0.15 0.15 79 1010.8
20260507083515 19 0.0 3.2 0.00 0.15 0.15 78 1010.8
20260507082536 19 23 1.6 4.8 0.00 0.15 0.15 78 1011.0
20260507081516 19 0.0 1.6 0.00 0.15 0.15 78 1010.4
20260507080536 19 248 1.6 3.2 0.00 0.15 0.15 78 1010.4
20260507075516 19 180 1.6 8.0 0.03 0.15 0.15 78 1010.5
20260507074516 19 158 1.6 4.8 0.03 0.15 0.15 78 1010.7
20260507073516 19 68 1.6 8.0 0.03 0.15 0.15 78 1010.8
20260507072516 18 0.0 3.2 0.05 0.15 0.15 77 1010.8
20260507071515 18 0.0 3.2 0.08 0.15 0.15 77 1010.7
20260507070515 18 0.0 3.2 0.13 0.15 0.15 75 1010.6
20260507065516 18 90 1.6 4.8 0.10 0.13 0.13 74 1010.5
20260507064515 19 180 1.6 6.4 0.13 0.13 0.13 73 1010.3
20260507063556 19 180 1.6 6.4 0.13 0.13 0.13 72 1010.6
20260507062536 19 0.0 3.2 0.10 0.10 0.10 71 1010.4
20260507061515 19 225 1.6 4.8 0.08 0.08 0.08 69 1010.7
20260507060535 19 0.0 0.0 0.03 0.03 0.03 69 1011.1
20260507055515 19 0.0 0.0 0.03 0.03 0.03 68 1011.6
20260507054515 19 0.0 0.0 0.00 0.00 0.00 68 1011.6
20260507053515 19 0.0 0.0 0.00 0.00 0.00 68 1011.7
20260507052515 19 0.0 1.6 0.00 0.00 0.00 68 1011.8
20260507051516 19 0.0 0.0 0.00 0.00 0.00 67 1011.9
20260507050516 20 0.0 0.0 0.00 0.00 0.00 67 1012.1
20260507045517 20 0.0 0.0 0.00 0.00 0.00 67 1012.0
20260507044517 20 0.0 0.0 0.00 0.00 0.00 66 1011.8
20260507043517 20 0.0 0.0 0.00 0.00 0.00 66 1011.6
20260507042517 20 0.0 0.0 0.00 0.00 0.00 65 1011.8
20260507041517 20 0.0 0.0 0.00 0.00 0.00 65 1011.8
20260507040517 20 0.0 0.0 0.00 0.00 0.00 65 1011.8
20260507035515 20 0.0 0.0 0.00 0.00 0.00 64 1011.7
20260507034516 20 0.0 0.0 0.00 0.00 0.00 64 1011.7
20260507033516 20 0.0 0.0 0.00 0.00 0.00 64 1011.7
20260507032516 20 0.0 1.6 0.00 0.00 0.00 64 1011.7
20260507031516 20 0.0 1.6 0.00 0.00 0.00 64 1011.6
20260507030515 20 0.0 1.6 0.00 0.00 0.00 64 1011.5
20260507025536 20 0.0 3.2 0.00 0.00 0.00 64 1011.6
20260507024516 20 0.0 8.0 0.00 0.00 0.00 64 1011.8
20260507023516 20 0.0 0.0 0.00 0.00 0.00 64 1011.7
20260507022515 20 0.0 0.0 0.00 0.00 0.00 63 1012.1
20260507021515 20 0.0 0.0 0.00 0.00 0.00 63 1011.9
20260507020516 20 0.0 0.0 0.00 0.00 0.00 62 1011.9
20260507015516 21 0.0 0.0 0.00 0.00 0.00 61 1012.1
20260507014542 21 0.0 0.0 0.00 0.00 0.00 61 1012.2
20260507013516 21 0.0 0.0 0.00 0.00 0.00 60 1011.8
20260507012516 21 0.0 0.0 0.00 0.00 0.00 60 1011.9
20260507011515 21 0.0 3.2 0.00 0.00 0.00 59 1011.8
20260507010515 21 0.0 3.2 0.00 0.00 0.00 59 1011.9
20260507005515 21 0.0 6.4 0.00 0.00 0.00 59 1012.0
20260507004515 21 0.0 3.2 0.00 0.00 0.00 58 1012.1
20260507003515 22 0.0 1.6 0.00 0.00 0.00 57 1012.1
20260507002515 22 0.0 3.2 0.00 0.00 0.00 57 1012.0
20260507001517 22 0.0 3.2 0.00 0.00 0.00 56 1011.9
20260507000517 22 0.0 3.2 0.00 0.00 0.00 55 1011.8
20260506235517 22 180 1.6 4.8 0.00 0.00 0.00 55 1011.8
20260506234517 22 0.0 4.8 0.00 0.00 0.00 55 1011.7
20260506233517 22 0.0 3.2 0.00 0.00 0.00 54 1011.5
20260506232517 22 0.0 6.4 0.00 0.00 0.00 54 1011.3
20260506231517 23 0.0 6.4 0.00 0.00 0.00 54 1011.2
20260506230517 23 0.0 6.4 0.00 0.00 0.00 54 1011.2
20260506225517 23 0.0 1.6 0.00 0.00 0.00 55 1011.3
20260506224517 23 0.0 1.6 0.00 0.00 0.00 54 1011.2
20260506223517 23 0.0 0.0 0.00 0.00 0.00 54 1011.2
20260506222517 23 0.0 0.0 0.00 0.00 0.00 54 1011.4
20260506221517 23 0.0 0.0 0.00 0.00 0.00 54 1011.6
20260506220517 23 0.0 0.0 0.00 0.00 0.00 54 1011.4
20260506215517 23 0.0 0.0 0.00 0.00 0.00 53 1011.3
20260506214517 23 0.0 3.2 0.00 0.00 0.00 53 1011.2
20260506213517 23 0.0 3.2 0.00 0.00 0.00 51 1011.2
20260506212517 23 158 1.6 6.4 0.00 0.00 0.00 50 1011.4
20260506211517 23 0.0 0.0 0.00 0.00 0.00 51 1011.4
20260506210517 23 113 1.6 4.8 0.00 0.00 0.00 51 1011.1
20260506205517 23 135 3.2 20.9 0.00 0.00 0.00 50 1010.9
20260506204517 23 203 1.6 9.7 0.00 0.00 0.00 50 1010.8
20260506203517 23 203 1.6 11.3 0.00 0.00 0.00 51 1010.8
20260506202517 23 180 1.6 9.7 0.00 0.00 0.00 51 1010.9
20260506201537 23 248 1.6 8.0 0.00 0.00 0.00 52 1011.0
20260506200517 23 68 1.6 6.4 0.00 0.00 0.00 53 1011.3
20260506195517 23 270 1.6 8.0 0.00 0.00 0.00 54 1011.4
20260506194537 23 225 1.6 4.8 0.00 0.00 0.00 54 1011.6
20260506193517 23 180 3.2 11.3 0.00 0.00 0.00 53 1011.9
20260506192517 23 45 1.6 6.4 0.00 0.00 0.00 53 1012.3
20260506191517 23 0 1.6 6.4 0.00 0.00 0.00 53 1012.6
20260506190517 23 0.0 3.2 0.00 0.00 0.00 54 1012.9
20260506185517 23 225 1.6 11.3 0.00 0.00 0.00 52 1012.9
20260506184517 23 158 1.6 8.0 0.00 0.00 0.00 53 1013.1
20260506183517 23 180 3.2 8.0 0.00 0.00 0.00 52 1013.1
20260506182517 23 270 1.6 4.8 0.00 0.00 0.00 54 1013.1
20260506181517 23 338 1.6 8.0 0.00 0.00 0.00 55 1013.1
20260506180517 23 113 1.6 6.4 0.00 0.00 0.00 56 1013.0
20260506175517 22 315 3.2 14.5 0.00 0.00 0.00 56 1013.1
20260506174517 22 45 1.6 6.4 0.00 0.00 0.00 57 1013.2
20260506173517 22 45 1.6 6.4 0.00 0.00 0.00 57 1013.2
20260506172517 22 248 3.2 9.7 0.00 0.00 0.00 57 1013.4
20260506171517 21 315 1.6 8.0 0.00 0.00 0.00 58 1013.7
20260506170517 21 293 3.2 9.7 0.00 0.00 0.00 59 1014.3
20260506165517 21 180 1.6 11.3 0.00 0.00 0.00 60 1014.4
20260506164516 21 135 1.6 6.4 0.00 0.00 0.00 60 1014.4
20260506163517 21 180 1.6 6.4 0.00 0.00 0.00 61 1014.5
20260506162516 21 270 3.2 16.1 0.00 0.00 0.00 61 1014.5
20260506161536 20 293 1.6 6.4 0.00 0.00 0.00 61 1014.6
20260506160517 20 270 1.6 8.0 0.00 0.00 0.00 61 1014.7
20260506155516 20 90 3.2 8.0 0.00 0.00 0.00 61 1014.9
20260506154517 20 315 1.6 6.4 0.00 0.00 0.00 61 1015.0
20260506153516 20 23 1.6 6.4 0.00 0.00 0.00 61 1015.2
20260506152517 21 203 1.6 6.4 0.00 0.00 0.00 59 1015.3